Location: Oshawa
(43.9000°N, 78.8670°W)
Time: 19:13:57
(UTC-04:00)

CARTOSAT-1 - Visible Passes

Search period start: 26 April 2017 00:00
Search period end: 06 May 2017 00:00
Orbit: 617 x 619 km, 97.9° (Epoch: 25 April)

Date Brightness Start Highest point End Pass type
(mag) Time Alt. Az. Time Alt. Az. Time Alt. Az.
26 Apr 4.6 22:29:11 31° ENE 22:29:15 31° ENE 22:33:04 10° N visible
27 Apr 5.5 00:06:18 23° WNW 00:06:18 23° WNW 00:08:55 10° NW visible
27 Apr 4.0 22:46:03 46° ENE 22:46:03 46° ENE 22:50:04 10° N visible
28 Apr 5.9 00:23:11 16° WNW 00:23:11 16° WNW 00:25:05 10° NW visible
28 Apr 3.6 23:02:56 67° NE 23:02:56 67° NE 23:06:57 10° N visible
29 Apr 6.3 00:40:03 11° WNW 00:40:03 11° WNW 00:40:33 10° WNW visible
29 Apr 5.7 21:42:40 11° ENE 21:43:56 12° ENE 21:45:29 10° NE visible
29 Apr 3.7 23:19:48 69° NW 23:19:48 69° NW 23:23:44 10° NNW visible
30 Apr 5.4 21:59:33 16° E 22:00:30 17° ENE 22:03:16 10° NNE visible
30 Apr 4.3 23:36:40 48° WNW 23:36:40 48° WNW 23:40:25 10° NNW visible
01 May 4.9 22:16:25 23° E 22:17:06 24° ENE 22:20:34 10° NNE visible
01 May 4.9 23:53:33 32° W 23:53:33 32° W 23:56:57 10° NNW visible
02 May 4.4 22:33:18 33° E 22:33:44 34° ENE 22:37:40 10° N visible
03 May 5.5 00:10:25 22° W 00:10:25 22° W 00:13:20 10° NW visible
03 May 3.8 22:50:10 50° E 22:50:25 51° ENE 22:54:38 10° N visible
04 May 5.9 00:27:18 15° W 00:27:18 15° W 00:29:22 10° NW visible
04 May 3.4 23:07:03 78° E 23:07:08 78° ENE 23:11:29 10° N visible
05 May 5.7 21:46:48 11° E 21:48:24 13° ENE 21:50:22 10° NNE visible
05 May 3.6 23:23:55 69° W 23:23:55 69° W 23:28:14 10° NNW visible
